| time (UTC) | temp F | wind direction | speed MPH | gust MPH | rain 1hr in | rain 24hr in | rain mn in | humidity % | barometer mb |
| 20260508193526 | 63 | 304 | 2.0 | 4.0 | 0.00 | 0.00 | 0.00 | 49 | 1015.6 |
| 20260508193050 | 64 | 316 | 1.0 | 4.0 | 0.00 | 0.00 | 0.00 | 50 | 1015.6 |
| 20260508192530 | 63 | 264 | 1.0 | 4.0 | 0.00 | 0.00 | 0.00 | 50 | 1015.7 |
| 20260508192024 | 62 | 23 | 1.0 | 4.0 | 0.00 | 0.00 | 0.00 | 51 | 1015.7 |
| 20260508191545 | 61 | 32 | 1.0 | 4.0 | 0.00 | 0.00 | 0.00 | 54 | 1015.8 |
| 20260508191026 | 60 | 78 | 0.0 | 2.0 | 0.00 | 0.00 | 0.00 | 56 | 1015.9 |
| 20260508190526 | 60 | 80 | 0.0 | 1.0 | 0.00 | 0.00 | 0.00 | 55 | 1016.0 |
| 20260508190044 | 60 | 0 | 0.0 | 2.0 | 0.00 | 0.00 | 0.00 | 55 | 1016.1 |
| 20260508185530 | 60 | 0 | 0.0 | 2.0 | 0.00 | 0.00 | 0.00 | 53 | 1016.3 |
| 20260508185024 | 60 | 266 | 1.0 | 2.0 | 0.00 | 0.00 | 0.00 | 55 | 1016.4 |
| 20260508184540 | 60 | 63 | 0.0 | 2.0 | 0.00 | 0.00 | 0.00 | 53 | 1016.4 |
| 20260508184023 | 60 | 0 | 0.0 | 3.0 | 0.00 | 0.00 | 0.00 | 54 | 1016.4 |
| 20260508183523 | 60 | 263 | 0.0 | 6.0 | 0.00 | 0.00 | 0.00 | 52 | 1016.4 |
| 20260508183047 | 61 | 290 | 1.0 | 6.0 | 0.00 | 0.00 | 0.00 | 52 | 1016.3 |
| 20260508182526 | 61 | 299 | 2.0 | 3.0 | 0.00 | 0.00 | 0.00 | 52 | 1016.3 |
| 20260508182023 | 61 | 31 | 2.0 | 3.0 | 0.00 | 0.00 | 0.00 | 54 | 1016.3 |
| 20260508181547 | 61 | 298 | 0.0 | 3.0 | 0.00 | 0.00 | 0.00 | 53 | 1016.4 |
| 20260508181023 | 61 | 255 | 1.0 | 3.0 | 0.00 | 0.00 | 0.00 | 55 | 1016.5 |
| 20260508180527 | 60 | 20 | 1.0 | 5.0 | 0.00 | 0.00 | 0.00 | 52 | 1016.4 |
| 20260508180045 | 61 | 20 | 2.0 | 7.0 | 0.00 | 0.00 | 0.00 | 51 | 1016.5 |
| 20260508175524 | 61 | 20 | 3.0 | 7.0 | 0.00 | 0.00 | 0.00 | 53 | 1016.5 |
| 20260508175027 | 60 | 7 | 1.0 | 6.0 | 0.00 | 0.00 | 0.00 | 52 | 1016.6 |
| 20260508174542 | 60 | 286 | 2.0 | 6.0 | 0.00 | 0.00 | 0.00 | 51 | 1016.7 |
| 20260508174026 | 60 | 278 | 1.0 | 5.0 | 0.00 | 0.00 | 0.00 | 53 | 1016.6 |
| 20260508173523 | 60 | 278 | 2.0 | 7.0 | 0.00 | 0.00 | 0.00 | 52 | 1016.8 |
| 20260508173045 | 60 | 321 | 2.0 | 7.0 | 0.00 | 0.00 | 0.00 | 51 | 1016.9 |
| 20260508172529 | 60 | 125 | 2.0 | 7.0 | 0.00 | 0.00 | 0.00 | 51 | 1016.7 |
| 20260508172024 | 60 | 320 | 2.0 | 5.0 | 0.00 | 0.00 | 0.00 | 51 | 1016.9 |
| 20260508171544 | 60 | 271 | 1.0 | 6.0 | 0.00 | 0.00 | 0.00 | 51 | 1016.9 |
| 20260508171024 | 60 | 294 | 3.0 | 6.0 | 0.00 | 0.00 | 0.00 | 51 | 1017.0 |
| 20260508170524 | 60 | 15 | 3.0 | 5.0 | 0.00 | 0.00 | 0.00 | 50 | 1016.9 |
| 20260508170054 | 60 | 251 | 1.0 | 6.0 | 0.00 | 0.00 | 0.00 | 51 | 1017.1 |
| 20260508165524 | 60 | 326 | 3.0 | 6.0 | 0.00 | 0.00 | 0.00 | 51 | 1017.2 |
| 20260508165023 | 60 | 319 | 2.0 | 5.0 | 0.00 | 0.00 | 0.00 | 52 | 1017.3 |
| 20260508164539 | 60 | 258 | 2.0 | 5.0 | 0.00 | 0.00 | 0.00 | 51 | 1017.4 |
| 20260508164027 | 60 | 283 | 3.0 | 5.0 | 0.00 | 0.00 | 0.00 | 51 | 1017.3 |
| 20260508163524 | 60 | 281 | 2.0 | 7.0 | 0.00 | 0.00 | 0.00 | 55 | 1017.4 |
| 20260508163041 | 60 | 245 | 1.0 | 7.0 | 0.00 | 0.00 | 0.00 | 52 | 1017.1 |
| 20260508162524 | 60 | 163 | 2.0 | 7.0 | 0.00 | 0.00 | 0.00 | 52 | 1017.1 |
| 20260508162023 | 60 | 234 | 2.0 | 5.0 | 0.00 | 0.00 | 0.00 | 50 | 1017.2 |
| 20260508161540 | 60 | 17 | 1.0 | 6.0 | 0.00 | 0.00 | 0.00 | 51 | 1017.2 |
| 20260508161024 | 60 | 231 | 1.0 | 6.0 | 0.00 | 0.00 | 0.00 | 54 | 1017.3 |
| 20260508160523 | 60 | 15 | 2.0 | 6.0 | 0.00 | 0.00 | 0.00 | 50 | 1017.3 |
| 20260508160040 | 59 | 143 | 2.0 | 6.0 | 0.00 | 0.00 | 0.00 | 52 | 1017.5 |
| 20260508155526 | 59 | 331 | 2.0 | 6.0 | 0.00 | 0.00 | 0.00 | 54 | 1017.6 |
| 20260508155024 | 59 | 1 | 2.0 | 7.0 | 0.00 | 0.00 | 0.00 | 51 | 1017.4 |
| 20260508154547 | 59 | 318 | 2.0 | 7.0 | 0.00 | 0.00 | 0.00 | 50 | 1017.5 |
| 20260508154023 | 59 | 323 | 3.0 | 7.0 | 0.00 | 0.00 | 0.00 | 52 | 1017.6 |
| 20260508153526 | 59 | 353 | 1.0 | 4.0 | 0.00 | 0.00 | 0.00 | 53 | 1017.5 |
| 20260508153047 | 58 | 359 | 1.0 | 5.0 | 0.00 | 0.00 | 0.00 | 55 | 1017.5 |
| 20260508152523 | 57 | 6 | 1.0 | 5.0 | 0.00 | 0.00 | 0.00 | 54 | 1017.6 |
| 20260508152023 | 57 | 63 | 2.0 | 5.0 | 0.00 | 0.00 | 0.00 | 54 | 1017.5 |
| 20260508151547 | 57 | 351 | 1.0 | 3.0 | 0.00 | 0.00 | 0.00 | 56 | 1017.7 |
| 20260508151024 | 56 | 306 | 0.0 | 3.0 | 0.00 | 0.00 | 0.00 | 57 | 1017.8 |
| 20260508150527 | 56 | 61 | 1.0 | 4.0 | 0.00 | 0.00 | 0.00 | 56 | 1017.7 |
| 20260508150044 | 56 | 293 | 0.0 | 4.0 | 0.00 | 0.00 | 0.00 | 57 | 1017.9 |
| 20260508145529 | 55 | 15 | 2.0 | 6.0 | 0.00 | 0.00 | 0.00 | 57 | 1018.0 |
| 20260508145027 | 55 | 340 | 2.0 | 6.0 | 0.00 | 0.00 | 0.00 | 57 | 1018.1 |
| 20260508144543 | 54 | 295 | 1.0 | 5.0 | 0.00 | 0.00 | 0.00 | 58 | 1018.2 |
| 20260508144025 | 54 | 10 | 2.0 | 5.0 | 0.00 | 0.00 | 0.00 | 58 | 1018.1 |
| 20260508143526 | 53 | 335 | 1.0 | 3.0 | 0.00 | 0.00 | 0.00 | 60 | 1018.0 |
| 20260508143038 | 53 | 294 | 0.0 | 3.0 | 0.00 | 0.00 | 0.00 | 64 | 1018.0 |
| 20260508142524 | 53 | 34 | 1.0 | 5.0 | 0.00 | 0.00 | 0.00 | 63 | 1018.0 |
| 20260508142026 | 52 | 0 | 1.0 | 5.0 | 0.00 | 0.00 | 0.00 | 63 | 1017.8 |
| 20260508141547 | 52 | 309 | 1.0 | 5.0 | 0.00 | 0.00 | 0.00 | 63 | 1018.1 |
| 20260508141029 | 51 | 300 | 0.0 | 5.0 | 0.00 | 0.00 | 0.00 | 65 | 1018.1 |
| 20260508140523 | 51 | 309 | 1.0 | 5.0 | 0.00 | 0.00 | 0.00 | 65 | 1018.0 |
| 20260508140049 | 50 | 230 | 1.0 | 4.0 | 0.00 | 0.00 | 0.00 | 68 | 1018.3 |
| 20260508135527 | 50 | 38 | 1.0 | 3.0 | 0.00 | 0.00 | 0.00 | 68 | 1018.3 |
| 20260508135028 | 49 | 279 | 1.0 | 3.0 | 0.00 | 0.00 | 0.00 | 69 | 1018.4 |
| 20260508134542 | 49 | 288 | 1.0 | 4.0 | 0.00 | 0.00 | 0.00 | 70 | 1018.4 |
| 20260508134023 | 49 | 266 | 1.0 | 4.0 | 0.00 | 0.00 | 0.00 | 69 | 1018.3 |
| 20260508133526 | 48 | 266 | 1.0 | 3.0 | 0.00 | 0.00 | 0.00 | 70 | 1018.4 |
| 20260508133042 | 48 | 217 | 1.0 | 3.0 | 0.00 | 0.00 | 0.00 | 71 | 1018.3 |
| 20260508132523 | 47 | 284 | 0.0 | 2.0 | 0.00 | 0.00 | 0.00 | 72 | 1018.4 |
| 20260508132023 | 47 | 233 | 0.0 | 2.0 | 0.00 | 0.00 | 0.00 | 75 | 1018.5 |
| 20260508131540 | 46 | 0 | 0.0 | 2.0 | 0.00 | 0.00 | 0.00 | 75 | 1018.5 |
| 20260508131025 | 46 | 0 | 0.0 | 2.0 | 0.00 | 0.00 | 0.00 | 76 | 1018.5 |
| 20260508130525 | 46 | 4 | 0.0 | 2.0 | 0.00 | 0.00 | 0.00 | 77 | 1018.5 |
| 20260508130106 | 45 | 0 | 0.0 | 2.0 | 0.00 | 0.00 | 0.00 | 78 | 1018.2 |
| 20260508125524 | 44 | 30 | 0.0 | 1.0 | 0.00 | 0.00 | 0.00 | 80 | 1018.3 |
| 20260508125023 | 44 | 0 | 0.0 | 1.0 | 0.00 | 0.00 | 0.00 | 80 | 1018.4 |
| 20260508124543 | 43 | 0 | 0.0 | 3.0 | 0.00 | 0.00 | 0.00 | 81 | 1018.3 |
| 20260508124023 | 43 | 0 | 0.0 | 3.0 | 0.00 | 0.00 | 0.00 | 82 | 1018.4 |
| 20260508123523 | 42 | 0 | 0.0 | 1.0 | 0.00 | 0.00 | 0.00 | 83 | 1018.4 |
| 20260508123042 | 42 | 0 | 0.0 | 3.0 | 0.00 | 0.00 | 0.00 | 84 | 1018.4 |
| 20260508122523 | 41 | 0 | 0.0 | 3.0 | 0.00 | 0.00 | 0.00 | 85 | 1018.3 |
| 20260508122023 | 41 | 70 | 0.0 | 3.0 | 0.00 | 0.00 | 0.00 | 85 | 1018.2 |
| 20260508121555 | 41 | 96 | 0.0 | 1.0 | 0.00 | 0.00 | 0.00 | 87 | 1018.3 |
| 20260508121023 | 40 | 0 | 0.0 | 1.0 | 0.00 | 0.00 | 0.00 | 87 | 1018.3 |
| 20260508120523 | 40 | 97 | 0.0 | 1.0 | 0.00 | 0.00 | 0.00 | 88 | 1018.3 |
| 20260508120112 | 39 | 0 | 0.0 | 1.0 | 0.00 | 0.00 | 0.00 | 88 | 1018.2 |
| 20260508115526 | 39 | 0 | 0.0 | 0.0 | 0.00 | 0.00 | 0.00 | 89 | 1018.2 |
| 20260508115025 | 39 | 0 | 0.0 | 0.0 | 0.00 | 0.00 | 0.00 | 89 | 1018.1 |
| 20260508114548 | 38 | 0 | 0.0 | 0.0 | 0.00 | 0.00 | 0.00 | 89 | 1018.1 |
| 20260508114027 | 38 | 0 | 0.0 | 0.0 | 0.00 | 0.00 | 0.00 | 89 | 1018.1 |
| 20260508113526 | 38 | 0 | 0.0 | 0.0 | 0.00 | 0.00 | 0.00 | 89 | 1018.1 |
| 20260508113046 | 38 | 0 | 0.0 | 0.0 | 0.00 | 0.00 | 0.00 | 89 | 1018.0 |
| 20260508112526 | 38 | 0 | 0.0 | 0.0 | 0.00 | 0.00 | 0.00 | 89 | 1018.1 |
| 20260508112023 | 38 | 0 | 0.0 | 0.0 | 0.00 | 0.00 | 0.00 | 89 | 1017.9 |
| 20260508111545 | 38 | 0 | 0.0 | 0.0 | 0.00 | 0.00 | 0.00 | 89 | 1017.9 |
| 20260508111024 | 38 | 0 | 0.0 | 0.0 | 0.00 | 0.00 | 0.00 | 89 | 1017.9 |
| 20260508110523 | 38 | 0 | 0.0 | 0.0 | 0.00 | 0.00 | 0.00 | 89 | 1018.0 |
| 20260508110044 | 38 | 0 | 0.0 | 0.0 | 0.00 | 0.00 | 0.00 | 89 | 1017.9 |
| 20260508105528 | 38 | 0 | 0.0 | 0.0 | 0.00 | 0.00 | 0.00 | 90 | 1017.7 |
| 20260508105022 | 38 | 0 | 0.0 | 0.0 | 0.00 | 0.00 | 0.00 | 90 | 1017.7 |
| 20260508104606 | 38 | 0 | 0.0 | 0.0 | 0.00 | 0.00 | 0.00 | 90 | 1017.7 |
| 20260508104026 | 37 | 0 | 0.0 | 0.0 | 0.00 | 0.00 | 0.00 | 90 | 1017.7 |
| 20260508103526 | 37 | 0 | 0.0 | 0.0 | 0.00 | 0.00 | 0.00 | 90 | 1017.6 |
| 20260508103045 | 37 | 0 | 0.0 | 0.0 | 0.00 | 0.00 | 0.00 | 90 | 1017.6 |
| 20260508102524 | 37 | 0 | 0.0 | 0.0 | 0.00 | 0.00 | 0.00 | 90 | 1017.4 |
| 20260508102026 | 37 | 0 | 0.0 | 0.0 | 0.00 | 0.00 | 0.00 | 91 | 1017.4 |
| 20260508101550 | 37 | 0 | 0.0 | 0.0 | 0.00 | 0.00 | 0.00 | 91 | 1017.4 |
| 20260508101024 | 37 | 0 | 0.0 | 0.0 | 0.00 | 0.00 | 0.00 | 91 | 1017.4 |
| 20260508100523 | 37 | 0 | 0.0 | 0.0 | 0.00 | 0.00 | 0.00 | 91 | 1017.5 |
| 20260508100043 | 37 | 0 | 0.0 | 0.0 | 0.00 | 0.00 | 0.00 | 90 | 1017.3 |
| 20260508095524 | 37 | 0 | 0.0 | 0.0 | 0.00 | 0.00 | 0.00 | 91 | 1017.3 |
| 20260508095024 | 37 | 0 | 0.0 | 0.0 | 0.00 | 0.00 | 0.00 | 91 | 1017.2 |
| 20260508094546 | 37 | 0 | 0.0 | 0.0 | 0.00 | 0.00 | 0.00 | 91 | 1017.2 |
| 20260508094023 | 37 | 0 | 0.0 | 0.0 | 0.00 | 0.00 | 0.00 | 91 | 1017.4 |
| 20260508093523 | 37 | 0 | 0.0 | 0.0 | 0.00 | 0.00 | 0.00 | 91 | 1017.3 |
| 20260508093043 | 37 | 0 | 0.0 | 0.0 | 0.00 | 0.00 | 0.00 | 91 | 1017.3 |
| 20260508092523 | 37 | 162 | 0.0 | 0.0 | 0.00 | 0.00 | 0.00 | 92 | 1017.3 |
| 20260508092024 | 36 | 0 | 0.0 | 0.0 | 0.00 | 0.00 | 0.00 | 91 | 1017.3 |
| 20260508091538 | 36 | 0 | 0.0 | 0.0 | 0.00 | 0.00 | 0.00 | 91 | 1017.5 |
| 20260508091023 | 37 | 0 | 0.0 | 0.0 | 0.00 | 0.00 | 0.00 | 91 | 1017.4 |
| 20260508090523 | 37 | 0 | 0.0 | 0.0 | 0.00 | 0.00 | 0.00 | 90 | 1017.3 |
| 20260508090050 | 37 | 0 | 0.0 | 0.0 | 0.00 | 0.00 | 0.00 | 90 | 1017.3 |
| 20260508085522 | 37 | 0 | 0.0 | 0.0 | 0.00 | 0.00 | 0.00 | 90 | 1017.3 |
| 20260508085022 | 37 | 0 | 0.0 | 0.0 | 0.00 | 0.00 | 0.00 | 90 | 1017.3 |
| 20260508084543 | 37 | 0 | 0.0 | 0.0 | 0.00 | 0.00 | 0.00 | 90 | 1017.2 |
| 20260508084025 | 37 | 0 | 0.0 | 0.0 | 0.00 | 0.00 | 0.00 | 90 | 1017.2 |
| 20260508083528 | 37 | 0 | 0.0 | 0.0 | 0.00 | 0.00 | 0.00 | 91 | 1017.3 |
| 20260508083101 | 37 | 0 | 0.0 | 0.0 | 0.00 | 0.00 | 0.00 | 90 | 1017.1 |
| 20260508082523 | 37 | 0 | 0.0 | 0.0 | 0.00 | 0.00 | 0.00 | 90 | 1017.2 |
| 20260508082026 | 37 | 0 | 0.0 | 0.0 | 0.00 | 0.00 | 0.00 | 90 | 1017.2 |
| 20260508081553 | 37 | 0 | 0.0 | 0.0 | 0.00 | 0.00 | 0.00 | 89 | 1017.2 |
| 20260508081024 | 38 | 0 | 0.0 | 0.0 | 0.00 | 0.00 | 0.00 | 88 | 1017.3 |
| 20260508080528 | 38 | 0 | 0.0 | 0.0 | 0.00 | 0.00 | 0.00 | 88 | 1017.2 |
| 20260508080045 | 38 | 0 | 0.0 | 0.0 | 0.00 | 0.00 | 0.00 | 88 | 1017.2 |
| 20260508075522 | 38 | 0 | 0.0 | 0.0 | 0.00 | 0.00 | 0.00 | 89 | 1017.2 |
| 20260508075028 | 38 | 0 | 0.0 | 0.0 | 0.00 | 0.00 | 0.00 | 89 | 1017.2 |
| 20260508074541 | 38 | 0 | 0.0 | 0.0 | 0.00 | 0.00 | 0.00 | 89 | 1017.3 |
| 20260508074026 | 38 | 0 | 0.0 | 0.0 | 0.00 | 0.00 | 0.00 | 89 | 1017.2 |
| 20260508073524 | 38 | 0 | 0.0 | 0.0 | 0.00 | 0.00 | 0.00 | 89 | 1017.2 |
| 20260508073039 | 38 | 0 | 0.0 | 0.0 | 0.00 | 0.00 | 0.00 | 89 | 1017.3 |
| 20260508072524 | 38 | 0 | 0.0 | 0.0 | 0.00 | 0.00 | 0.00 | 89 | 1017.0 |
| 20260508072024 | 38 | 0 | 0.0 | 0.0 | 0.00 | 0.00 | 0.00 | 88 | 1017.1 |
| 20260508071554 | 38 | 0 | 0.0 | 0.0 | 0.00 | 0.00 | 0.00 | 88 | 1017.1 |
| 20260508071025 | 38 | 0 | 0.0 | 0.0 | 0.00 | 0.00 | 0.00 | 88 | 1017.2 |
| 20260508070525 | 38 | 0 | 0.0 | 0.0 | 0.00 | 0.00 | 0.00 | 88 | 1017.1 |
| 20260508070135 | 38 | 0 | 0.0 | 0.0 | 0.00 | 0.00 | 0.00 | 88 | 1017.2 |
| 20260508065526 | 39 | 0 | 0.0 | 0.0 | 0.00 | 0.00 | 0.00 | 88 | 1017.1 |
| 20260508065025 | 39 | 0 | 0.0 | 0.0 | 0.00 | 0.00 | 0.00 | 88 | 1017.1 |
| 20260508064554 | 39 | 0 | 0.0 | 0.0 | 0.00 | 0.00 | 0.00 | 87 | 1017.2 |
| 20260508064022 | 39 | 0 | 0.0 | 0.0 | 0.00 | 0.00 | 0.00 | 87 | 1017.4 |
| 20260508063526 | 39 | 0 | 0.0 | 0.0 | 0.00 | 0.00 | 0.00 | 87 | 1017.3 |
| 20260508063043 | 39 | 0 | 0.0 | 0.0 | 0.00 | 0.00 | 0.00 | 86 | 1017.4 |
| 20260508062525 | 39 | 0 | 0.0 | 0.0 | 0.00 | 0.00 | 0.00 | 86 | 1017.3 |
| 20260508062023 | 39 | 0 | 0.0 | 0.0 | 0.00 | 0.00 | 0.00 | 87 | 1017.3 |
| 20260508061542 | 40 | 0 | 0.0 | 0.0 | 0.00 | 0.00 | 0.00 | 86 | 1017.4 |
| 20260508061023 | 40 | 0 | 0.0 | 0.0 | 0.00 | 0.00 | 0.00 | 85 | 1017.3 |
| 20260508060523 | 40 | 0 | 0.0 | 0.0 | 0.00 | 0.00 | 0.00 | 85 | 1017.4 |
| 20260508060039 | 40 | 0 | 0.0 | 0.0 | 0.00 | 0.00 | 0.00 | 84 | 1017.3 |
| 20260508055522 | 40 | 0 | 0.0 | 0.0 | 0.00 | 0.00 | 0.00 | 83 | 1017.4 |
| 20260508055025 | 41 | 0 | 0.0 | 0.0 | 0.00 | 0.00 | 0.00 | 83 | 1017.5 |
| 20260508054544 | 41 | 0 | 0.0 | 0.0 | 0.00 | 0.00 | 0.00 | 83 | 1017.5 |
| 20260508054025 | 41 | 0 | 0.0 | 0.0 | 0.00 | 0.00 | 0.00 | 83 | 1017.5 |
| 20260508053525 | 42 | 0 | 0.0 | 0.0 | 0.00 | 0.00 | 0.00 | 81 | 1017.5 |
| 20260508053050 | 42 | 0 | 0.0 | 0.0 | 0.00 | 0.00 | 0.00 | 81 | 1017.5 |
| 20260508052526 | 42 | 0 | 0.0 | 0.0 | 0.00 | 0.00 | 0.00 | 82 | 1017.6 |
| 20260508052025 | 42 | 0 | 0.0 | 0.0 | 0.00 | 0.00 | 0.00 | 81 | 1017.7 |
| 20260508051550 | 43 | 0 | 0.0 | 0.0 | 0.00 | 0.00 | 0.00 | 79 | 1017.7 |
| 20260508051025 | 43 | 0 | 0.0 | 0.0 | 0.00 | 0.00 | 0.00 | 78 | 1017.6 |
| 20260508050525 | 43 | 0 | 0.0 | 0.0 | 0.00 | 0.00 | 0.00 | 78 | 1017.7 |
| 20260508050039 | 43 | 0 | 0.0 | 0.0 | 0.00 | 0.00 | 0.00 | 75 | 1017.7 |
| 20260508045522 | 44 | 0 | 0.0 | 0.0 | 0.00 | 0.00 | 0.00 | 77 | 1017.7 |
| 20260508045023 | 44 | 0 | 0.0 | 0.0 | 0.00 | 0.00 | 0.00 | 76 | 1017.5 |
| 20260508044535 | 44 | 0 | 0.0 | 1.0 | 0.00 | 0.00 | 0.00 | 76 | 1017.6 |
| 20260508044026 | 44 | 162 | 0.0 | 1.0 | 0.00 | 0.00 | 0.00 | 74 | 1017.6 |
| 20260508043525 | 45 | 0 | 0.0 | 0.0 | 0.00 | 0.00 | 0.00 | 72 | 1017.6 |
| 20260508043057 | 46 | 0 | 0.0 | 0.0 | 0.00 | 0.00 | 0.00 | 71 | 1017.5 |
| 20260508042523 | 46 | 0 | 0.0 | 0.0 | 0.00 | 0.00 | 0.00 | 73 | 1017.3 |
| 20260508042025 | 46 | 0 | 0.0 | 0.0 | 0.00 | 0.00 | 0.00 | 71 | 1017.5 |
| 20260508041543 | 47 | 0 | 0.0 | 0.0 | 0.00 | 0.00 | 0.00 | 71 | 1017.4 |
| 20260508041025 | 47 | 0 | 0.0 | 0.0 | 0.00 | 0.00 | 0.00 | 67 | 1017.4 |
| 20260508040526 | 47 | 0 | 0.0 | 0.0 | 0.00 | 0.00 | 0.00 | 62 | 1017.3 |
| 20260508040041 | 48 | 0 | 0.0 | 0.0 | 0.00 | 0.00 | 0.00 | 64 | 1017.4 |
| 20260508035523 | 48 | 0 | 0.0 | 0.0 | 0.00 | 0.00 | 0.00 | 66 | 1017.3 |
| 20260508035025 | 48 | 0 | 0.0 | 0.0 | 0.00 | 0.00 | 0.00 | 63 | 1017.3 |
| 20260508034540 | 48 | 0 | 0.0 | 1.0 | 0.00 | 0.00 | 0.00 | 63 | 1017.3 |
| 20260508034023 | 48 | 0 | 0.0 | 1.0 | 0.00 | 0.00 | 0.00 | 59 | 1017.2 |
| 20260508033525 | 48 | 0 | 0.0 | 0.0 | 0.00 | 0.00 | 0.00 | 59 | 1017.2 |
| 20260508033042 | 48 | 0 | 0.0 | 0.0 | 0.00 | 0.00 | 0.00 | 59 | 1017.3 |
| 20260508032526 | 48 | 0 | 0.0 | 0.0 | 0.00 | 0.00 | 0.00 | 60 | 1017.3 |
| 20260508032024 | 48 | 0 | 0.0 | 0.0 | 0.00 | 0.00 | 0.00 | 60 | 1017.3 |
| 20260508031552 | 49 | 0 | 0.0 | 1.0 | 0.00 | 0.00 | 0.00 | 59 | 1017.2 |
| 20260508031024 | 49 | 0 | 0.0 | 1.0 | 0.00 | 0.00 | 0.00 | 61 | 1017.3 |
| 20260508030524 | 49 | 0 | 0.0 | 0.0 | 0.00 | 0.00 | 0.00 | 60 | 1017.2 |
| 20260508030051 | 49 | 0 | 0.0 | 1.0 | 0.00 | 0.00 | 0.00 | 59 | 1017.2 |
| 20260508025525 | 49 | 0 | 0.0 | 1.0 | 0.00 | 0.00 | 0.00 | 58 | 1017.1 |
| 20260508025024 | 50 | 0 | 0.0 | 1.0 | 0.00 | 0.00 | 0.00 | 58 | 1017.0 |
| 20260508024539 | 50 | 0 | 0.0 | 1.0 | 0.00 | 0.00 | 0.00 | 57 | 1017.0 |
| 20260508024025 | 50 | 0 | 0.0 | 1.0 | 0.00 | 0.00 | 0.00 | 56 | 1016.9 |
| 20260508023524 | 50 | 0 | 0.0 | 1.0 | 0.00 | 0.00 | 0.00 | 56 | 1016.8 |
| 20260508023043 | 50 | 0 | 0.0 | 1.0 | 0.00 | 0.00 | 0.00 | 55 | 1016.9 |
| 20260508022524 | 51 | 0 | 0.0 | 1.0 | 0.00 | 0.00 | 0.00 | 55 | 1016.9 |
| 20260508022024 | 51 | 0 | 0.0 | 1.0 | 0.00 | 0.00 | 0.00 | 55 | 1016.7 |
| 20260508021544 | 51 | 0 | 0.0 | 1.0 | 0.00 | 0.00 | 0.00 | 54 | 1016.7 |
| 20260508021024 | 51 | 0 | 0.0 | 1.0 | 0.00 | 0.00 | 0.00 | 54 | 1016.6 |
| 20260508020526 | 51 | 0 | 0.0 | 1.0 | 0.00 | 0.00 | 0.00 | 53 | 1016.5 |
| 20260508020044 | 51 | 0 | 0.0 | 1.0 | 0.00 | 0.00 | 0.00 | 53 | 1016.6 |
| 20260508015524 | 52 | 0 | 0.0 | 2.0 | 0.00 | 0.00 | 0.00 | 53 | 1016.4 |
| 20260508015024 | 52 | 0 | 0.0 | 2.0 | 0.00 | 0.00 | 0.00 | 52 | 1016.3 |
| 20260508014545 | 52 | 181 | 0.0 | 2.0 | 0.00 | 0.00 | 0.00 | 52 | 1016.3 |
| 20260508014024 | 52 | 308 | 0.0 | 3.0 | 0.00 | 0.00 | 0.00 | 52 | 1016.3 |
| 20260508013523 | 52 | 0 | 0.0 | 3.0 | 0.00 | 0.00 | 0.00 | 52 | 1016.1 |
| 20260508013039 | 52 | 191 | 0.0 | 3.0 | 0.00 | 0.00 | 0.00 | 52 | 1016.3 |
| 20260508012524 | 52 | 142 | 0.0 | 1.0 | 0.00 | 0.00 | 0.00 | 51 | 1016.1 |
| 20260508012024 | 52 | 0 | 0.0 | 2.0 | 0.00 | 0.00 | 0.00 | 52 | 1016.0 |
| 20260508011546 | 52 | 0 | 0.0 | 2.0 | 0.00 | 0.00 | 0.00 | 52 | 1015.9 |
| 20260508011023 | 53 | 300 | 0.0 | 2.0 | 0.00 | 0.00 | 0.00 | 50 | 1015.8 |
| 20260508010524 | 53 | 0 | 0.0 | 0.0 | 0.00 | 0.00 | 0.00 | 50 | 1015.6 |
| 20260508010043 | 53 | 0 | 0.0 | 1.0 | 0.00 | 0.00 | 0.00 | 49 | 1015.7 |
| 20260508005527 | 53 | 0 | 0.0 | 1.0 | 0.00 | 0.00 | 0.00 | 50 | 1015.6 |
| 20260508005025 | 54 | 0 | 0.0 | 1.0 | 0.00 | 0.00 | 0.00 | 48 | 1015.6 |
| 20260508004545 | 54 | 224 | 0.0 | 1.0 | 0.00 | 0.00 | 0.00 | 48 | 1015.6 |
| 20260508004027 | 54 | 237 | 0.0 | 2.0 | 0.00 | 0.00 | 0.00 | 47 | 1015.5 |
| 20260508003524 | 55 | 189 | 0.0 | 2.0 | 0.00 | 0.00 | 0.00 | 47 | 1015.4 |
| 20260508003041 | 55 | 215 | 0.0 | 2.0 | 0.00 | 0.00 | 0.00 | 47 | 1015.3 |
| 20260508002524 | 55 | 326 | 0.0 | 1.0 | 0.00 | 0.00 | 0.00 | 46 | 1015.2 |
| 20260508002024 | 55 | 258 | 0.0 | 4.0 | 0.00 | 0.00 | 0.00 | 46 | 1015.1 |
| 20260508001538 | 56 | 266 | 0.0 | 4.0 | 0.00 | 0.00 | 0.00 | 45 | 1015.0 |
| 20260508001024 | 56 | 205 | 1.0 | 4.0 | 0.00 | 0.00 | 0.00 | 45 | 1015.0 |
| 20260508000526 | 56 | 326 | 0.0 | 4.0 | 0.00 | 0.00 | 0.00 | 45 | 1014.7 |
| 20260508000046 | 57 | 266 | 1.0 | 6.0 | 0.00 | 0.00 | 0.00 | 43 | 1014.7 |
| 20260507235525 | 57 | 240 | 2.0 | 7.0 | 0.00 | 0.00 | 0.00 | 42 | 1014.6 |
| 20260507235023 | 57 | 298 | 3.0 | 7.0 | 0.00 | 0.00 | 0.00 | 43 | 1014.9 |
| 20260507234544 | 57 | 324 | 1.0 | 3.0 | 0.00 | 0.00 | 0.00 | 45 | 1014.6 |
| 20260507234024 | 57 | 268 | 1.0 | 3.0 | 0.00 | 0.00 | 0.00 | 44 | 1014.5 |
| 20260507233524 | 58 | 354 | 1.0 | 5.0 | 0.00 | 0.00 | 0.00 | 45 | 1014.4 |
| 20260507233044 | 58 | 275 | 1.0 | 5.0 | 0.00 | 0.00 | 0.00 | 44 | 1014.3 |
| 20260507232524 | 58 | 319 | 1.0 | 5.0 | 0.00 | 0.00 | 0.00 | 44 | 1014.3 |
| 20260507232024 | 58 | 314 | 1.0 | 4.0 | 0.00 | 0.00 | 0.00 | 44 | 1014.2 |
| 20260507231542 | 58 | 314 | 1.0 | 4.0 | 0.00 | 0.00 | 0.00 | 44 | 1014.1 |
| 20260507231024 | 58 | 281 | 1.0 | 3.0 | 0.00 | 0.00 | 0.00 | 43 | 1014.2 |
| 20260507230524 | 58 | 276 | 1.0 | 3.0 | 0.00 | 0.00 | 0.00 | 45 | 1014.1 |
| 20260507230042 | 58 | 356 | 1.0 | 5.0 | 0.00 | 0.00 | 0.00 | 43 | 1014.0 |
| 20260507225525 | 58 | 333 | 2.0 | 5.0 | 0.00 | 0.00 | 0.00 | 45 | 1014.1 |
| 20260507225023 | 58 | 327 | 1.0 | 5.0 | 0.00 | 0.00 | 0.00 | 44 | 1014.0 |
| 20260507224546 | 58 | 273 | 2.0 | 4.0 | 0.00 | 0.00 | 0.00 | 45 | 1014.1 |
| 20260507224023 | 59 | 342 | 2.0 | 4.0 | 0.00 | 0.00 | 0.00 | 42 | 1014.1 |
| 20260507223524 | 59 | 307 | 1.0 | 8.0 | 0.00 | 0.00 | 0.00 | 44 | 1014.1 |
| 20260507223045 | 59 | 39 | 2.0 | 8.0 | 0.00 | 0.00 | 0.00 | 42 | 1013.9 |
| 20260507222524 | 59 | 316 | 3.0 | 8.0 | 0.00 | 0.00 | 0.00 | 43 | 1013.9 |
| 20260507222024 | 59 | 297 | 1.0 | 4.0 | 0.00 | 0.00 | 0.00 | 45 | 1013.9 |
| 20260507221541 | 59 | 263 | 1.0 | 2.0 | 0.00 | 0.00 | 0.00 | 45 | 1013.9 |
| 20260507221023 | 59 | 101 | 0.0 | 2.0 | 0.00 | 0.00 | 0.00 | 45 | 1013.8 |
| 20260507220524 | 59 | 0 | 1.0 | 2.0 | 0.00 | 0.00 | 0.00 | 45 | 1013.8 |
| 20260507220040 | 59 | 322 | 1.0 | 2.0 | 0.00 | 0.00 | 0.00 | 44 | 1013.6 |
| 20260507215525 | 58 | 74 | 0.0 | 2.0 | 0.00 | 0.00 | 0.00 | 44 | 1013.6 |
| 20260507215027 | 58 | 5 | 1.0 | 2.0 | 0.00 | 0.00 | 0.00 | 44 | 1013.6 |
| 20260507214542 | 59 | 279 | 1.0 | 3.0 | 0.00 | 0.00 | 0.00 | 45 | 1013.6 |
| 20260507214024 | 59 | 314 | 0.0 | 5.0 | 0.00 | 0.00 | 0.00 | 44 | 1013.5 |
| 20260507213524 | 59 | 342 | 2.0 | 5.0 | 0.00 | 0.00 | 0.00 | 45 | 1013.5 |
| 20260507213045 | 60 | 339 | 1.0 | 4.0 | 0.00 | 0.00 | 0.00 | 45 | 1013.5 |
| 20260507212523 | 60 | 350 | 1.0 | 4.0 | 0.00 | 0.00 | 0.00 | 46 | 1013.4 |
| 20260507212023 | 60 | 308 | 1.0 | 3.0 | 0.00 | 0.00 | 0.00 | 47 | 1013.4 |
| 20260507211542 | 60 | 318 | 1.0 | 6.0 | 0.00 | 0.00 | 0.00 | 46 | 1013.4 |
| 20260507211024 | 59 | 300 | 2.0 | 6.0 | 0.00 | 0.00 | 0.00 | 48 | 1013.5 |
| 20260507210523 | 58 | 345 | 1.0 | 2.0 | 0.00 | 0.00 | 0.00 | 49 | 1013.5 |
| 20260507210045 | 58 | 302 | 0.0 | 2.0 | 0.00 | 0.00 | 0.00 | 48 | 1013.4 |
| 20260507205524 | 58 | 299 | 1.0 | 3.0 | 0.00 | 0.00 | 0.00 | 47 | 1013.5 |
| 20260507205025 | 58 | 0 | 1.0 | 3.0 | 0.00 | 0.00 | 0.00 | 48 | 1013.4 |
| 20260507204552 | 58 | 23 | 2.0 | 5.0 | 0.00 | 0.00 | 0.00 | 47 | 1013.5 |
| 20260507204024 | 59 | 295 | 1.0 | 5.0 | 0.00 | 0.00 | 0.00 | 49 | 1013.3 |
| 20260507203525 | 59 | 330 | 1.0 | 6.0 | 0.00 | 0.00 | 0.00 | 46 | 1013.2 |
| 20260507203041 | 59 | 314 | 1.0 | 6.0 | 0.00 | 0.00 | 0.00 | 47 | 1013.4 |
| 20260507202524 | 59 | 307 | 1.0 | 5.0 | 0.00 | 0.00 | 0.00 | 48 | 1013.5 |
| 20260507202023 | 60 | 10 | 2.0 | 5.0 | 0.00 | 0.00 | 0.00 | 47 | 1013.6 |
| 20260507201548 | 60 | 20 | 1.0 | 6.0 | 0.00 | 0.00 | 0.00 | 46 | 1013.5 |
| 20260507201024 | 60 | 26 | 2.0 | 6.0 | 0.00 | 0.00 | 0.00 | 45 | 1013.4 |
| 20260507200527 | 60 | 300 | 2.0 | 5.0 | 0.00 | 0.00 | 0.00 | 45 | 1013.5 |
| 20260507200050 | 61 | 293 | 1.0 | 5.0 | 0.00 | 0.00 | 0.00 | 46 | 1013.4 |
| 20260507195524 | 60 | 16 | 2.0 | 4.0 | 0.00 | 0.00 | 0.00 | 48 | 1013.6 |
| 20260507195028 | 60 | 287 | 2.0 | 5.0 | 0.00 | 0.00 | 0.00 | 49 | 1013.7 |
| 20260507194549 | 59 | 306 | 2.0 | 5.0 | 0.00 | 0.00 | 0.00 | 49 | 1013.9 |
| 20260507194024 | 58 | 158 | 1.0 | 4.0 | 0.00 | 0.00 | 0.00 | 50 | 1013.9 |